Regional Weather Roundup
Issued by NWS Memphis, TN

Home | Current Version | Previous Version | Text Only | Print | Product List | Glossary On
Versions: 1 2 3 4 5 6 7 8 9 10 11 12 13 14 15 16 17 18 19 20 21 22 23 24 25 26 27 28 29 30 31 32 33 34 35 36 37 38 39 40 41 42 43 44 45 46 47 48 49 50
591
ASUS44 KMEG 140710
RWRMEG
MEMPHIS CWA HOURLY WEATHER ROUNDUP
NATIONAL WEATHER SERVICE MEMPHIS TN
100 AM CST SUN FEB 14 2016

...WEST TENNESSEE...

CITY           SKY/WX    TMP DP  RH WIND       PRES   REMARKS
MEMPHIS INTL   CLOUDY    30   9  41 E8        30.30F WCI  22
NWS MEMPHIS      N/A     28 N/A N/A MISG        N/A
JACKSON        CLOUDY    27   9  46 E7        30.34F WCI  19
LEXINGTON      CLEAR     27   3  36 E5        30.35F WCI  21
DYERSBURG      CLOUDY    27  12  54 E5        30.36F WCI  21
UNION CITY     CLOUDY    27   9  46 E8        30.35F WCI  18
PARIS          CLOUDY    25   5  42 E7        30.37F WCI  17


...EASTERN ARKANSAS...

CITY           SKY/WX    TMP DP  RH WIND       PRES   REMARKS
JONESBORO      CLOUDY    25  16  68 NE7       30.34F WCI  17
WEST MEMPHIS   CLOUDY    30  10  43 E9        30.30F WCI  22
BATESVILLE     CLOUDY    27   9  46 E7        30.33F WCI  19
NEWPORT        CLOUDY    27  15  60 NE7       30.35S WCI  20
WALNUT RIDGE   CLOUDY    27  10  50 E6        30.36R WCI  20
BLYTHEVILLE    CLOUDY    28  13  53 E10       30.34F WCI  19
SEARCY         CLOUDY    29  17  61 NE9       30.33S WCI  20
STUTTGART      CLOUDY    34  16  47 E10       30.27F WCI  26
PINE BLUFF     CLOUDY    35  17  47 E10       30.26F WCI  27
MONTICELLO     CLOUDY    37  17  44 E7        30.25F WCI  32


...NORTH MISSISSIPPI...

CITY           SKY/WX    TMP DP  RH WIND       PRES   REMARKS
TUPELO         CLOUDY    29   8  41 NE6       30.32F WCI  23
TUNICA         CLEAR     30  12  47 E6        30.32R WCI  24
CORINTH        CLOUDY    28  10  47 E6        30.33F WCI  22
GREENWOOD      CLOUDY    35  11  36 E6        30.30F WCI  30
COLUMBUS       CLEAR     30  11  45 E7        30.32F WCI  23
STARKVILLE     FAIR      32  12  43 E5        30.32F WCI  27
GOLDEN TRIANGL CLEAR     32   9  37 E8        30.30F WCI  25


...SOUTHEAST MISSOURI...

CITY           SKY/WX    TMP DP  RH WIND       PRES   REMARKS
WEST PLAINS    CLOUDY    24   4  42 SE8       30.29S WCI  15
POPLAR BLUFF   CLOUDY    27   8  44 E8        30.35F WCI  19
CAPE GIRARDEAU CLOUDY    25   8  48 E12       30.37F WCI  14


...NORTHWEST ALABAMA...

CITY           SKY/WX    TMP DP  RH WIND       PRES   REMARKS
MUSCLE SHOALS  CLOUDY    28   8  43 E8        30.36F WCI  20


...MIDDLE TENNESSEE...

CITY           SKY/WX    TMP DP  RH WIND       PRES   REMARKS
NASHVILLE      CLOUDY    27   4  37 E8        30.41F WCI  19
CLARKSVILLE    CLOUDY    25   8  48 E9        30.41F WCI  15
COLUMBIA       CLOUDY    27   9  46 E9        30.37S WCI  17


...WESTERN KENTUCKY...

CITY           SKY/WX    TMP DP  RH WIND       PRES   REMARKS
PADUCAH        CLOUDY    25   9  50 E8        30.37F WCI  16
FORT CAMPBELL  CLOUDY    25   6  43 E9        30.40F WCI  15


...CENTRAL ARKANSAS...

CITY           SKY/WX    TMP DP  RH WIND       PRES   REMARKS
LITTLE ROCK    CLOUDY    33  15  47 NE9       30.28F WCI  25


SKY/WX REPORTED AS FAIR MEANS FEW OR NO CLOUDS BELOW
12 THOUSAND FEET.





USA.gov is the U.S. government's official web portal to all federal, state and local government web resources and services.